#timestamp,LO_Frequency,Hit 
1500721215.4,286046771.5,N
1500721235.2,286046773.2,N
1500721255.1,286046771.0,N
1500721256.0,286046771.0,N
1500721275.8,286046776.8,N
1500721295.6,286046771.9,N
1500721315.5,286046775.5,N
1500721335.3,286046777.8,N
1500721355.1,286046773.7,N
1500721375.8,286046770.0,N
1500721395.7,286046768.9,N
1500721415.5,286046770.8,N
1500721435.3,286046772.3,N
1500721455.2,286046771.8,N
1500721475.0,286046770.0,N
1500721475.9,286046770.0,N
1500721495.7,286046768.0,N
1500721515.6,286046767.7,N
1500721535.4,286046775.2,N
1500721555.2,286046775.5,N
1500721575.1,286046778.4,N
1500721576.0,286046778.4,N
1500721595.8,286046786.5,N
1500721615.6,286046784.3,N
1500721635.5,286046788.1,N
1500721655.3,286046781.8,N
1500721675.1,286046776.5,N
1500721695.9,286046780.4,N
1500721715.7,286046781.7,N
1500721735.5,286046784.9,N
1500721755.4,286046782.4,N
1500721775.2,286046780.2,N
1500721795.0,286046782.7,N
1500721795.9,286046782.7,N
1500721815.8,286046784.7,N
1500721835.6,286046780.9,N
1500721855.4,286046774.2,N
1500721875.3,286046777.0,N
1500721895.1,286046776.7,N
1500721896.0,286046776.7,N
1500721915.8,286046776.9,N
1500721935.7,286046774.0,N
1500721955.5,286046770.9,N
1500721975.3,286046780.5,N
1500721995.1,286046776.5,N
1500722015.9,286046771.1,N
1500722035.7,286046769.5,N
1500722055.5,286046767.7,N
1500722075.4,286046768.5,N
1500722095.2,286046766.1,N
1500722115.0,286046767.4,N
1500722115.9,286046767.4,N
1500722135.8,286046766.8,N
1500722155.6,286046764.4,N
1500722175.4,286046758.9,N
1500722195.3,286046759.3,N
1500722215.1,286046760.4,N
1500722235.8,286046765.8,N
1500722255.7,286046767.8,N
1500722275.5,286046767.8,N
1500722295.3,286046764.5,N
1500722315.2,286046775.2,N
1500722335.9,286046773.1,N
1500722355.7,286046772.0,N
1500722375.6,286046767.6,N
1500722395.4,286046767.4,N
1500722415.2,286046763.1,N
1500722435.1,286046767.0,N
1500722436.0,286046767.0,N
1500722455.8,286046769.3,N
1500722475.6,286046769.7,N
1500722495.5,286046770.5,N
1500722515.3,286046773.3,N
1500722535.1,286046778.9,N
1500722555.9,286046776.8,N
1500722575.7,286046768.1,N
1500722595.5,286046769.3,N
1500722615.4,286046768.3,N
1500722635.2,286046770.1,N
1500722655.0,286046770.3,N
1500722655.9,286046770.3,N
1500722675.8,286046766.9,N
1500722695.6,286046767.2,N
1500722715.4,286046765.0,N
1500722735.3,286046762.9,N
1500722755.1,286046765.0,N
1500722756.0,286046765.0,N
1500722775.8,286046765.0,N
1500722795.7,286046768.2,N
1500722815.5,286046782.3,N
1500722835.3,286046781.8,N
1500722855.2,286046780.5,N
1500722875.9,286046784.5,N
1500722895.7,286046785.6,N
1500722915.5,286046787.9,N
1500722935.4,286046801.8,N
1500722955.2,286046802.8,N
1500722975.0,286046797.2,N
1500722976.0,286046797.2,N
1500722995.8,286046793.1,N
1500723015.6,286046792.6,N
1500723035.4,286046792.8,N
1500723055.3,286046798.7,N
1500723075.1,286046792.2,N
1500723095.8,286046790.7,N
1500723115.7,286046792.0,N
1500723135.5,286046794.3,N
1500723155.3,286046789.4,N
1500723175.2,286046792.8,N
1500723195.9,286046794.0,N
1500723215.7,286046787.5,N
1500723235.6,286046797.6,N
1500723255.4,286046790.4,N
1500723275.2,286046793.9,N
1500723295.1,286046796.9,N
1500723296.0,286046796.9,N
1500723315.8,286046794.2,N
1500723335.6,286046788.6,N
1500723355.5,286046793.6,N
1500723375.3,286046793.4,N
1500723395.1,286046797.6,N
1500723415.9,286046795.7,N
1500723435.7,286046795.8,N
1500723455.5,286046797.8,N
1500723475.4,286046799.1,N
1500723495.2,286046797.2,N
1500723515.0,286046800.7,N
1500723515.9,286046800.7,N
1500723535.8,286046804.4,N
1500723555.6,286046801.8,N
1500723575.4,286046802.5,N
1500723595.3,286046798.8,N
1500723615.1,286046798.4,N
1500723616.0,286046798.4,N
1500723635.8,286046800.1,N
1500723655.7,286046803.4,N
1500723675.5,286046804.4,N
1500723695.3,286046796.0,N
1500723715.1,286046796.9,N
1500723735.9,286046800.9,N
1500723755.7,286046797.1,N
1500723775.5,286046799.2,N
1500723795.4,286046803.9,N
1500723815.2,286046814.7,N
1500723835.0,286046809.5,N
1500723835.9,286046809.5,N
1500723855.8,286046804.8,N
1500723875.6,286046806.2,N
1500723895.4,286046796.7,N
1500723915.3,286046792.1,N
1500723935.1,286046792.9,N
1500723955.8,286046790.1,N
1500723975.7,286046792.2,N
1500723995.5,286046795.9,N
1500724015.3,286046799.1,N
1500724035.2,286046789.7,N
1500724055.9,286046786.3,N
1500724075.7,286046781.4,N
1500724095.6,286046782.8,N
1500724115.4,286046785.4,N
1500724135.2,286046793.7,N
1500724155.1,286046802.1,N
1500724156.0,286046802.1,N
1500724175.8,286046816.9,N
1500724195.6,286046813.5,N
1500724215.5,286046808.7,N
1500724235.3,286046807.2,N
1500724255.1,286046808.1,N
1500724275.9,286046807.8,N
1500724295.7,286046807.9,N
1500724315.5,286046807.7,N
1500724335.4,286046807.7,N
1500724355.2,286046806.1,N
1500724375.0,286046804.8,N
1500724375.9,286046804.8,N
1500724395.8,286046803.0,N
1500724415.6,286046800.1,N
1500724435.4,286046797.3,N
1500724455.2,286046808.1,N
1500724475.1,286046814.9,N
1500724476.0,286046814.9,N
1500724495.8,286046818.8,N
1500724515.6,286046820.8,N
1500724535.5,286046821.0,N
1500724555.3,286046818.4,N
1500724575.1,286046817.5,N
1500724595.9,286046813.5,N
1500724615.7,286046809.5,N
1500724635.5,286046812.6,N
1500724655.4,286046816.3,N
1500724675.2,286046815.9,N
1500724695.0,286046816.7,N
1500724695.9,286046816.7,N
1500724715.8,286046816.6,N
1500724735.6,286046812.7,N
1500724755.4,286046819.0,N
1500724775.3,286046819.6,N
1500724795.1,286046817.4,N
1500724796.0,286046817.4,N
